Simultaneous Nadir Overpasses (SNOs) Predictions

Prediction of SNOs between NOAA-19 and TERRA Satellite Orbit:

Table of predicted SNOs for the next 14.0 days since TLE Epoch: 8/1/2015
Index Date (NOAA-19) Time (NOAA-19) Lat,Lon (NOAA-19) SZA (NOAA-19 ) Date (TERRA) Time (TERRA) Lat,Lon (TERRA) SZA (TERRA ) Distance(km) Time Diff (sec)
1 08/02/2015 09:12:36 72.47, 45.69 54.59 08/02/2015 09:13:48 72.39, 46.08 54.53 15.72 72
2 08/02/2015 10:03:34 -72.20,-146.53 125.66 08/02/2015 10:03:19 -72.22,-146.60 125.65 3.10 15
3 08/04/2015 14:46:55 -72.30, 142.48 124.99 08/04/2015 14:47:34 -72.32, 142.52 124.97 2.53 39
4 08/04/2015 15:37:52 72.22, -50.09 54.94 08/04/2015 15:37:01 72.23, -50.01 54.95 3.19 51
5 08/06/2015 19:30:31 -73.15, 69.85 123.56 08/06/2015 19:31:37 -73.05, 72.84 123.61 97.24 66
6 08/06/2015 20:21:11 72.25,-120.94 55.57 08/06/2015 20:21:17 72.27,-121.00 55.59 3.33 6
7 08/06/2015 21:12:04 -71.68, 47.41 124.97 08/06/2015 21:10:55 -71.73, 45.68 124.96 60.58 69
8 08/09/2015 01:04:31 72.33, 168.10 56.27 08/09/2015 01:05:32 72.36, 168.09 56.30 2.92 61
9 08/09/2015 01:55:34 -72.24, -24.50 123.81 08/09/2015 01:55:02 -72.25, -24.48 123.81 0.44 32
10 08/11/2015 06:38:54 -72.31, -95.43 123.10 08/11/2015 06:39:17 -72.33, -95.40 123.08 1.97 23
11 08/11/2015 07:29:50 72.24, 71.98 56.84 08/11/2015 07:28:44 72.23, 72.06 56.82 2.92 66
12 08/13/2015 11:22:19 -72.64,-166.89 122.13 08/13/2015 11:23:30 -72.51,-166.13 122.23 28.87 71
13 08/13/2015 12:13:09 72.28, 1.11
